Track LEMUR 2 DJARA now! 10-day predictions LEMUR 2 DJARA is classified as:
1 46926U 98067RW 21020.61357428 .00017085 00000-0 27600-3 0 9997 2 46926 51.6440 351.3145 0000257 7.3540 352.7454 15.52972571 11875